Location: Waltman Observatory
(32.5145°N, 90.4450°W)
Time: 20:51:03
(UTC-06:00)

Amateur Radio Satellites - All Passes

Search period start: 05 December 2016 20:21
Search period end: 06 December 2016 20:21
Location: Waltman Observatory, 32.5145°N, 90.4450°W

Satellite Date Start Highest point End Downlink Frequencies (MHz)
Time Altitude Azimuth
Cosmos 2504 05 Dec 20:22:47 20:30:52 64° 279° (W) 20:39:33 435.465 / 435.565
STRAND 1 05 Dec 20:35:31 20:38:55 18° 293° (WNW) 20:42:19 437.568
AAUSAT CUBESAT 2 05 Dec 20:38:41 20:41:50 21° 264° (W) 20:44:59 437.432
Cosmos 2491 05 Dec 20:40:41 20:41:00 10° 283° (WNW) 20:41:19 435.465 / 435.565
Oscar 11 05 Dec 20:46:06 20:50:18 51° 260° (W) 20:54:31 145.826/435.025
YUBILEINY 05 Dec 20:58:46 21:04:19 18° 291° (WNW) 21:09:56 435.215
UWE-3 05 Dec 21:01:59 21:05:20 19° 265° (W) 21:08:41 435.000/436.395/437.385
TIGRISAT 05 Dec 21:09:39 21:11:27 12° 93° (E) 21:13:14 435.000
ANTELSAT 05 Dec 21:10:37 21:12:51 14° 93° (E) 21:15:03 437.575/2403.000
CUSAT 1 05 Dec 21:16:15 21:19:42 27° 263° (W) 21:23:58 437.405
HUMSAT D 05 Dec 21:38:15 21:42:28 74° 258° (WSW) 21:46:41 437.325/437.525
DELFI C3 05 Dec 21:40:13 21:43:41 30° 262° (W) 21:47:11 145.870
PCSat 05 Dec 21:45:37 21:50:41 41° 250° (WSW) 21:55:43 145.827
PRISM 05 Dec 21:48:21 21:52:05 32° 287° (WNW) 21:55:47 437.425
DANDE 05 Dec 21:58:48 22:01:27 27° 263° (W) 22:04:39 436.750
UNISAT 6 05 Dec 22:13:51 22:18:15 88° 113° (ESE) 22:22:32 437.425
SPROUT 05 Dec 22:33:00 22:34:51 13° 67° (ENE) 22:36:43 437.525
JAS-2 05 Dec 22:40:20 22:44:45 27° 98° (E) 22:49:22 435.910
TIGRISAT 05 Dec 22:44:12 22:48:19 42° 286° (WNW) 22:52:21 435.000
ANTELSAT 05 Dec 22:45:38 22:49:40 37° 287° (WNW) 22:53:38 437.575/2403.000
ESTCUBE 1 05 Dec 22:45:57 22:50:26 82° 75° (ENE) 22:54:54 437.505/2401.250
AISAT 05 Dec 22:54:10 22:58:17 40° 73° (ENE) 23:02:25 437.250
NANOSAT C BR1 05 Dec 22:56:16 22:59:29 21° 96° (E) 23:02:40 145.865
QB50P2 05 Dec 23:01:25 23:05:06 29° 97° (E) 23:08:46 145.880/145.840
POLYITAN 1 05 Dec 23:02:01 23:05:38 27° 97° (E) 23:09:12 437.675
50 SAT 05 Dec 23:04:05 23:07:17 35° 74° (ENE) 23:10:31 437.505
ISS 05 Dec 23:04:16 23:07:22 36° 40° (NE) 23:10:26 145.825
QB50P1 05 Dec 23:14:52 23:18:51 39° 99° (E) 23:22:47 145.935-145.965
DUCHIFAT 1 05 Dec 23:18:05 23:21:58 36° 98° (E) 23:25:48 145.980
CUBEBUG 1 05 Dec 23:20:50 23:25:07 65° 258° (WSW) 23:29:29 437.445
Cosmos 2499 05 Dec 23:24:52 23:31:37 27° 84° (E) 23:38:36 435.465 / 435.565
VELOX 1 05 Dec 23:30:47 23:35:10 77° 257° (WSW) 23:39:36 145.980
POPSAT HIP 1 05 Dec 23:36:09 23:40:24 74° 102° (ESE) 23:44:34 437.405
PHONESAT 2.4 05 Dec 23:36:29 23:39:06 59° 151° (SSE) 23:41:44 2401.200-2431.200
GONETS M04 05 Dec 23:37:06 23:44:19 30° 85° (E) 23:51:30
DX 1 05 Dec 23:45:04 23:49:23 80° 75° (ENE) 23:53:45 434.975-435.025
UKube-1 05 Dec 23:52:46 23:57:03 71° 75° (ENE) 00:01:21 .
TISAT 1 05 Dec 23:54:52 23:57:38 17° 69° (ENE) 00:00:24 437.305
SPROUT 06 Dec 00:06:14 00:10:20 44° 261° (W) 00:14:28 437.525
BUGSAT 1 06 Dec 00:15:57 00:20:07 67° 101° (E) 00:24:12 437.445
JAS-2 06 Dec 00:25:24 00:29:46 28° 290° (WNW) 00:34:21 435.910
NANOSAT C BR1 06 Dec 00:31:42 00:35:05 24° 289° (WNW) 00:38:28 145.865
AISAT 06 Dec 00:32:34 00:34:51 14° 266° (W) 00:37:10 437.250
QB50P2 06 Dec 00:37:46 00:40:38 18° 291° (WNW) 00:43:30 145.880/145.840
POLYITAN 1 06 Dec 00:38:13 00:41:12 19° 290° (WNW) 00:44:09 437.675
ISS 06 Dec 00:41:39 00:43:36 15° 233° (SW) 00:45:32 145.825
QB50P1 06 Dec 00:52:08 00:54:13 14° 292° (WNW) 00:56:17 145.935-145.965
DUCHIFAT 1 06 Dec 00:54:59 00:57:17 15° 292° (WNW) 00:59:34 145.980
AUBIESAT-1 06 Dec 01:00:13 01:03:24 22° 65° (ENE) 01:06:45 437.475
Gurwin Techsat 1B 06 Dec 01:02:07 01:06:02 21° 95° (E) 01:09:56 435.225
O/OREOS (USA 219) 06 Dec 01:05:50 01:08:45 17° 62° (ENE) 01:11:38 437.305
Oscar 19 06 Dec 01:06:52 01:11:54 49° 100° (E) 01:16:54 437.125/150
M-CUBED/EXP-1 PRIME 06 Dec 01:11:39 01:15:20 37° 68° (ENE) 01:19:20 437.505
PHONESAT 2.4 06 Dec 01:12:18 01:14:29 22° 345° (NNW) 01:16:40 2401.200-2431.200
Cosmos 2499 06 Dec 01:15:54 01:24:06 55° 280° (W) 01:32:45 435.465 / 435.565
SWISSCUBE 06 Dec 01:16:23 01:20:35 32° 71° (ENE) 01:24:49 437.505
BEESAT 06 Dec 01:20:27 01:24:39 31° 71° (ENE) 01:28:51 436.000
TISAT 1 06 Dec 01:29:13 01:32:58 31° 262° (W) 01:36:46 437.305
GONETS M04 06 Dec 01:32:22 01:40:41 48° 281° (W) 01:49:01
AO-85 06 Dec 01:47:03 01:52:06 76° 298° (WNW) 01:56:48 145.980
ITUPSAT 1 06 Dec 01:47:24 01:52:06 62° 75° (ENE) 01:56:50 437.325
MOZHAYETS 4 06 Dec 02:27:51 02:32:02 36° 73° (ENE) 02:36:13
AUBIESAT-1 06 Dec 02:34:22 02:37:38 24° 260° (W) 02:41:07 437.475
Gurwin Techsat 1B 06 Dec 02:41:08 02:46:02 39° 289° (WNW) 02:50:55 435.225
O/OREOS (USA 219) 06 Dec 02:44:09 02:48:13 35° 256° (WSW) 02:52:16 437.305
Oscar 19 06 Dec 02:47:33 02:50:45 17° 294° (WNW) 02:53:56 437.125/150
M-CUBED/EXP-1 PRIME 06 Dec 02:47:59 02:50:00 13° 264° (W) 02:52:05 437.505
PHONESAT 2.4 06 Dec 02:48:42 02:50:17 14° 2° (N) 02:51:52 2401.200-2431.200
AO-7 06 Dec 02:49:46 02:57:12 34° 99° (E) 03:04:35 29.400- 29.500
SWISSCUBE 06 Dec 02:54:50 02:58:21 20° 264° (W) 03:01:54 437.505
BEESAT 06 Dec 02:58:50 03:02:24 21° 264° (W) 03:05:59 436.000
KKS-1 06 Dec 02:59:08 03:03:07 33° 72° (ENE) 03:07:07 437.445
STARS 06 Dec 03:06:37 03:09:32 18° 68° (ENE) 03:12:28 437.465
ITAMSAT 1 06 Dec 03:13:57 03:19:09 88° 284° (WNW) 03:24:19 435.822/435.867
ITUPSAT 1 06 Dec 03:29:53 03:30:14 10° 268° (W) 03:30:37 437.325
MOZHAYETS 4 06 Dec 04:06:19 04:09:15 17° 266° (W) 04:12:10
CUBESAT XI-V 06 Dec 04:06:55 04:11:25 60° 75° (ENE) 04:15:56 437.345
PHONESAT 2.4 06 Dec 04:23:40 04:26:02 28° 18° (NNE) 04:28:22 2401.200-2431.200
KKS-1 06 Dec 04:36:43 04:39:41 17° 265° (W) 04:42:41 437.445
BEESAT 3 06 Dec 04:37:48 04:41:40 88° 284° (WNW) 04:45:36 437.485
SO-50 06 Dec 04:40:10 04:44:12 31° 56° (NE) 04:48:10 436.795
STARS 06 Dec 04:41:36 04:45:35 33° 262° (W) 04:49:36 437.465
AO-7 06 Dec 04:42:09 04:49:57 46° 294° (WNW) 04:57:46 29.400- 29.500
GOMX 1 06 Dec 04:50:11 04:54:15 21° 94° (E) 04:58:16 467.674
RS-15 06 Dec 04:52:55 04:56:12 11° 96° (E) 04:59:30 29.354- 29.394
BEESAT 2 06 Dec 05:06:50 05:10:44 84° 117° (ESE) 05:14:43 435.950
NOAA 15 06 Dec 05:11:46 05:15:12 17° 94° (E) 05:18:38 137.62
BRITE-PL 06 Dec 05:12:48 05:18:20 85° 102° (ESE) 05:24:02 437.365/2234.400
YUBILEINY 06 Dec 05:14:41 05:22:11 30° 74° (ENE) 05:29:38 435.215
Cubesat XI-IV 06 Dec 05:14:55 05:18:13 16° 94° (E) 05:21:30 437.490
Cosmos 2491 06 Dec 05:37:54 05:44:35 25° 84° (E) 05:51:15 435.465 / 435.565
HORYU 2 06 Dec 05:45:01 05:49:20 54° 286° (WNW) 05:53:37 437.375
AIST 1 06 Dec 05:53:27 05:55:33 13° 74° (ENE) 05:57:38
PHONESAT 2.4 06 Dec 05:58:50 06:01:17 34° 212° (SSW) 06:03:43 2401.200-2431.200
STRAND 1 06 Dec 06:06:39 06:11:22 38° 72° (ENE) 06:16:06 437.568
CINEMA 3 06 Dec 06:20:28 06:22:55 14° 92° (E) 06:25:19 145.822/145.860
SO-50 06 Dec 06:21:08 06:24:24 20° 250° (WSW) 06:27:38 436.795
Cosmos 2504 06 Dec 06:21:37 06:29:40 40° 76° (ENE) 06:37:14 435.465 / 435.565
CUTE-I 06 Dec 06:27:11 06:32:32 86° 284° (WNW) 06:37:50 437.470
GOMX 1 06 Dec 06:27:13 06:32:22 42° 287° (WNW) 06:37:28 467.674
LilacSat-2 06 Dec 06:35:09 06:38:43 42° 285° (WNW) 06:42:17 437.200
NOAA 18 06 Dec 06:36:37 06:42:08 70° 102° (ESE) 06:47:36 137.9125
DOVE 4 06 Dec 06:37:25 06:42:42 77° 283° (WNW) 06:47:46 437.250
CANX-2 06 Dec 06:44:43 06:47:27 17° 95° (E) 06:50:10 2200.000
NOAA 15 06 Dec 06:50:06 06:55:06 45° 288° (WNW) 07:00:07 137.62
Cubesat XI-IV 06 Dec 06:53:22 06:58:28 48° 287° (WNW) 07:03:33 437.490
BRITE-PL 06 Dec 06:54:45 06:56:05 11° 295° (WNW) 06:57:25 437.365/2234.400
RS-15 06 Dec 06:54:50 07:06:19 72° 113° (ESE) 07:18:24 29.354- 29.394
HO-68 06 Dec 07:00:13 07:06:33 32° 98° (E) 07:12:49 435.675
SEEDS 06 Dec 07:09:48 07:12:46 19° 95° (E) 07:15:42 437.485
YUBILEINY 06 Dec 07:10:46 07:19:08 50° 271° (W) 07:27:30 435.215
COMPASS 1 06 Dec 07:20:24 07:22:59 16° 94° (E) 07:25:32 437.405
AIST 1 06 Dec 07:29:10 07:33:17 39° 268° (W) 07:37:22
Cosmos 2491 06 Dec 07:32:08 07:40:44 58° 279° (W) 07:49:21 435.465 / 435.565
AIST 2 06 Dec 07:34:29 07:38:32 76° 117° (ESE) 07:42:41 435.215
STRAND 1 06 Dec 07:46:55 07:50:36 20° 265° (W) 07:54:17 437.568
CINEMA 3 06 Dec 07:55:45 08:00:16 43° 287° (WNW) 08:04:34 145.822/145.860
ZACube-1 06 Dec 08:01:07 08:03:29 15° 94° (E) 08:05:50 437.345
CUTE 1.7 + AOD 2 06 Dec 08:01:10 08:05:19 60° 284° (WNW) 08:09:28 437.475
FUNcube-1 06 Dec 08:08:28 08:11:09 17° 94° (E) 08:13:48 145.935
CUBEBUG 2 06 Dec 08:12:47 08:17:07 64° 101° (E) 08:21:17 437.445
Cosmos 2504 06 Dec 08:15:07 08:22:50 37° 274° (W) 08:30:08 435.465 / 435.565
CANX-2 06 Dec 08:19:36 08:23:17 30° 287° (WNW) 08:26:59 2200.000
NOAA 18 06 Dec 08:19:39 08:22:07 13° 297° (WNW) 08:24:35 137.9125
AAUSAT CUBESAT 2 06 Dec 08:24:04 08:28:13 80° 102° (ESE) 08:32:22 437.432
PRISM 06 Dec 08:32:26 08:36:29 89° 257° (WSW) 08:40:35 437.425
CUSAT 1 06 Dec 08:34:32 08:37:04 19° 97° (E) 08:39:17 437.405
Oscar 11 06 Dec 08:37:49 08:41:50 38° 98° (E) 08:45:51 145.826/435.025
SEEDS 06 Dec 08:44:52 08:48:23 27° 288° (WNW) 08:51:54 437.485
HO-68 06 Dec 08:47:37 08:54:12 40° 292° (WNW) 09:00:47 435.675
COMPASS 1 06 Dec 08:54:52 08:58:31 31° 287° (WNW) 09:02:12 437.405
UWE-3 06 Dec 08:55:01 08:59:14 61° 284° (WNW) 09:03:21 435.000/436.395/437.385
UNISAT 6 06 Dec 09:07:32 09:11:59 44° 74° (ENE) 09:16:25 437.425
RS-15 06 Dec 09:09:33 09:19:48 33° 315° (NW) 09:30:29 29.354- 29.394
DANDE 06 Dec 09:20:20 09:24:27 24° 97° (E) 09:27:45 436.750
DELFI C3 06 Dec 09:21:26 09:25:14 42° 99° (E) 09:29:01 145.870
HUMSAT D 06 Dec 09:26:43 09:29:58 23° 96° (E) 09:33:13 437.325/437.525
JUGNU 06 Dec 09:30:55 09:33:12 12° 163° (SSE) 09:35:28 437.505
ZACube-1 06 Dec 09:36:04 09:39:50 32° 287° (WNW) 09:43:32 437.345
TIGRISAT 06 Dec 09:37:11 09:41:53 89° 273° (W) 09:46:34 435.000
ANTELSAT 06 Dec 09:38:42 09:43:24 81° 257° (WSW) 09:48:06 437.575/2403.000
FUNcube-1 06 Dec 09:43:47 09:47:24 29° 288° (WNW) 09:50:57 145.935
QB50P2 06 Dec 09:51:06 09:53:04 13° 67° (ENE) 09:55:01 145.880/145.840
POLYITAN 1 06 Dec 09:51:50 09:53:36 12° 67° (ENE) 09:55:23 437.675
QB50P1 06 Dec 10:03:41 10:06:27 17° 69° (ENE) 10:09:15 145.935-145.965
DUCHIFAT 1 06 Dec 10:06:30 10:09:01 16° 68° (ENE) 10:11:34 145.980
Oscar 11 06 Dec 10:15:19 10:17:36 14° 292° (WNW) 10:19:53 145.826/435.025
AO-85 06 Dec 10:23:58 10:27:03 21° 54° (NE) 10:30:04 145.980
POPSAT HIP 1 06 Dec 10:24:10 10:27:52 29° 72° (ENE) 10:31:36 437.405
JAS-2 06 Dec 10:31:02 10:37:42 67° 75° (ENE) 10:43:35 435.910
PCSat 06 Dec 10:39:07 10:44:18 49° 111° (ESE) 10:49:32 145.827
ESTCUBE 1 06 Dec 10:43:31 10:47:11 24° 96° (E) 10:50:51 437.505/2401.250
UNISAT 6 06 Dec 10:46:18 10:48:49 14° 266° (W) 10:51:20 437.425
AISAT 06 Dec 10:51:17 10:52:26 11° 93° (E) 10:53:35 437.250
DELFI C3 06 Dec 10:58:27 10:59:36 11° 292° (WNW) 11:00:45 145.870
BUGSAT 1 06 Dec 11:01:20 11:04:47 25° 71° (ENE) 11:08:15 437.445
HUMSAT D 06 Dec 11:02:25 11:05:25 20° 289° (WNW) 11:08:25 437.325/437.525
DANDE 06 Dec 11:03:26 11:06:56 19° 279° (W) 11:09:52 436.750
Cosmos 2499 06 Dec 11:13:27 11:21:30 45° 77° (ENE) 11:28:56 435.465 / 435.565
CUBEBUG 1 06 Dec 11:14:07 11:18:06 32° 98° (E) 11:22:03 437.445
JUGNU 06 Dec 11:17:11 11:21:34 21° 172° (S) 11:25:56 437.505
NANOSAT C BR1 06 Dec 11:18:03 11:22:15 60° 259° (W) 11:26:29 145.865
QB50P2 06 Dec 11:24:22 11:28:25 42° 261° (W) 11:32:31 145.880/145.840
POLYITAN 1 06 Dec 11:24:50 11:28:57 45° 261° (W) 11:33:05 437.675
VELOX 1 06 Dec 11:25:44 11:29:35 28° 97° (E) 11:33:24 145.980
RS-15 06 Dec 11:34:35 11:38:10 11° 348° (NNW) 11:41:46 29.354- 29.394
QB50P1 06 Dec 11:38:08 11:41:56 31° 262° (W) 11:45:46 145.935-145.965
DX 1 06 Dec 11:38:38 11:41:49 20° 96° (E) 11:45:00 434.975-435.025
DUCHIFAT 1 06 Dec 11:40:29 11:44:22 34° 262° (W) 11:48:16 145.980
UKube-1 06 Dec 11:45:30 11:48:18 17° 95° (E) 11:51:05 .
GONETS M04 06 Dec 11:47:42 11:56:25 70° 83° (E) 12:05:07
SPROUT 06 Dec 11:56:28 12:00:32 41° 99° (E) 12:04:33 437.525
POPSAT HIP 1 06 Dec 12:00:42 12:03:37 18° 265° (W) 12:06:33 437.405
AO-85 06 Dec 12:04:18 12:07:18 21° 249° (WSW) 12:10:17 145.980
50 SAT 06 Dec 12:07:18 12:10:52 85° 103° (ESE) 12:14:26 437.505
Gurwin Techsat 1B 06 Dec 12:18:56 12:22:54 22° 68° (ENE) 12:26:54 435.225
Oscar 19 06 Dec 12:19:12 12:24:02 44° 72° (ENE) 12:28:54 437.125/150
JAS-2 06 Dec 12:19:21 12:22:53 15° 265° (W) 12:26:15 435.910
ESTCUBE 1 06 Dec 12:20:12 12:23:51 24° 289° (WNW) 12:27:29 437.505/2401.250
PCSat 06 Dec 12:24:06 12:27:56 19° 306° (NW) 12:31:48 145.827
AISAT 06 Dec 12:24:46 12:29:07 51° 286° (WNW) 12:33:25 437.250
BUGSAT 1 06 Dec 12:36:52 12:40:02 21° 264° (W) 12:43:15 437.445
CUBEBUG 1 06 Dec 12:51:04 12:54:05 18° 291° (WNW) 12:57:05 437.445
SRMSAT 06 Dec 12:57:09 13:00:55 17° 168° (SSE) 13:04:41 437.500
BEESAT 3 06 Dec 13:00:24 13:02:25 13° 51° (NE) 13:04:25 437.485
VELOX 1 06 Dec 13:02:30 13:05:49 21° 291° (WNW) 13:09:08 145.980
JUGNU 06 Dec 13:05:21 13:10:00 24° 182° (S) 13:14:39 437.505
Cosmos 2499 06 Dec 13:07:08 13:14:11 31° 275° (W) 13:20:50 435.465 / 435.565
DX 1 06 Dec 13:14:11 13:17:58 28° 289° (WNW) 13:21:41 434.975-435.025
TISAT 1 06 Dec 13:17:01 13:21:10 54° 101° (E) 13:25:15 437.305
UKube-1 06 Dec 13:20:29 13:24:21 32° 288° (WNW) 13:28:11 .
SWISSCUBE 06 Dec 13:23:15 13:24:43 11° 93° (E) 13:26:11 437.505
BEESAT 06 Dec 13:27:24 13:28:44 11° 93° (E) 13:30:02 436.000
BEESAT 2 06 Dec 13:30:25 13:32:20 13° 51° (NE) 13:34:14 435.950
SPROUT 06 Dec 13:34:01 13:36:01 13° 293° (WNW) 13:38:02 437.525
AO-7 06 Dec 13:44:11 13:51:14 32° 62° (ENE) 13:58:18 29.400- 29.500
GONETS M04 06 Dec 13:46:34 13:52:17 20° 278° (W) 13:58:02
RS-15 06 Dec 13:51:37 13:58:49 17° 28° (NNE) 14:05:55 29.354- 29.394
ITUPSAT 1 06 Dec 13:53:09 13:56:53 23° 96° (E) 14:00:36 437.325
Gurwin Techsat 1B 06 Dec 13:57:39 14:02:33 38° 261° (W) 14:07:29 435.225
Oscar 19 06 Dec 14:00:16 14:03:30 17° 266° (W) 14:06:44 437.125/150
AUBIESAT-1 06 Dec 14:16:31 14:20:40 35° 102° (ESE) 14:24:36 437.475
ITAMSAT 1 06 Dec 14:27:09 14:32:22 89° 76° (ENE) 14:37:37 435.822/435.867
M-CUBED/EXP-1 PRIME 06 Dec 14:28:49 14:33:25 64° 105° (ESE) 14:37:47 437.505
MOZHAYETS 4 06 Dec 14:29:23 14:31:02 12° 93° (E) 14:32:41
BEESAT 3 06 Dec 14:36:27 14:40:14 43° 246° (WSW) 14:43:59 437.485
SRMSAT 06 Dec 14:44:52 14:49:28 23° 178° (S) 14:54:04 437.500
JUGNU 06 Dec 14:54:37 14:58:24 17° 192° (SSW) 15:02:11 437.505
SWISSCUBE 06 Dec 14:58:07 15:02:46 55° 286° (WNW) 15:07:23 437.505
BEESAT 06 Dec 15:02:07 15:06:46 57° 286° (WNW) 15:11:24 436.000
BEESAT 2 06 Dec 15:06:29 15:10:20 46° 246° (WSW) 15:14:10 435.950
O/OREOS (USA 219) 06 Dec 15:12:15 15:16:35 44° 105° (ESE) 15:20:55 437.305
ITUPSAT 1 06 Dec 15:30:35 15:34:38 29° 289° (WNW) 15:38:42 437.325
AO-7 06 Dec 15:35:42 15:43:36 49° 258° (WSW) 15:51:37 29.400- 29.500
ISS 06 Dec 15:40:51 15:44:03 52° 318° (NW) 15:47:17 145.825
AUBIESAT-1 06 Dec 15:51:35 15:54:43 19° 297° (WNW) 15:57:46 437.475
GOMX 1 06 Dec 15:56:12 15:57:29 11° 64° (ENE) 15:58:48 467.674
AIST 2 06 Dec 16:01:24 16:03:40 14° 51° (NE) 16:05:54 435.215
RS-15 06 Dec 16:02:55 16:15:00 56° 55° (NE) 16:26:37 29.354- 29.394
MOZHAYETS 4 06 Dec 16:04:00 16:08:24 49° 286° (WNW) 16:12:47
M-CUBED/EXP-1 PRIME 06 Dec 16:05:41 16:07:13 12° 300° (WNW) 16:08:45 437.505
CUBESAT XI-V 06 Dec 16:08:38 16:12:12 21° 96° (E) 16:15:46 437.345
CUTE-I 06 Dec 16:09:46 16:10:21 10° 62° (ENE) 16:10:56 437.470
BRITE-PL 06 Dec 16:19:46 16:23:53 54° 75° (ENE) 16:28:16 437.365/2234.400
NOAA 15 06 Dec 16:27:42 16:31:13 19° 66° (ENE) 16:34:44 137.62
KKS-1 06 Dec 16:30:26 16:34:52 64° 285° (WNW) 16:39:15 437.445
Cubesat XI-IV 06 Dec 16:32:33 16:36:11 19° 66° (ENE) 16:39:49 437.490
SRMSAT 06 Dec 16:33:44 16:38:03 21° 188° (S) 16:42:21 437.500
STARS 06 Dec 16:34:57 16:39:19 61° 101° (E) 16:43:39 437.465
HORYU 2 06 Dec 16:37:55 16:42:22 76° 77° (ENE) 16:46:51 437.375
O/OREOS (USA 219) 06 Dec 16:53:40 16:56:11 14° 300° (WNW) 16:58:40 437.305
LilacSat-2 06 Dec 17:12:08 17:15:47 42° 75° (ENE) 17:19:25 437.200
HO-68 06 Dec 17:26:39 17:30:25 15° 59° (ENE) 17:34:11 435.675
GOMX 1 06 Dec 17:30:29 17:34:52 59° 260° (W) 17:39:36 467.674
DOVE 4 06 Dec 17:37:39 17:42:16 63° 75° (ENE) 17:47:14 437.250
AIST 2 06 Dec 17:38:17 17:42:22 47° 246° (WSW) 17:46:24 435.215
CUTE-I 06 Dec 17:44:14 17:49:37 83° 258° (WSW) 17:55:01 437.470
CUBESAT XI-V 06 Dec 17:45:29 17:49:30 29° 288° (WNW) 17:53:32 437.345
Cosmos 2491 06 Dec 17:48:04 17:56:39 59° 81° (E) 18:05:10 435.465 / 435.565
NOAA 18 06 Dec 17:58:11 18:03:43 84° 75° (ENE) 18:09:18 137.9125
NOAA 15 06 Dec 18:05:37 18:10:36 44° 260° (W) 18:15:36 137.62
YUBILEINY 06 Dec 18:09:37 18:17:29 40° 87° (E) 18:25:22 435.215
Cubesat XI-IV 06 Dec 18:10:42 18:15:50 46° 260° (W) 18:21:00 437.490
RS-15 06 Dec 18:16:08 18:26:57 39° 255° (WSW) 18:37:27 29.354- 29.394
STRAND 1 06 Dec 18:22:35 18:26:07 19° 95° (E) 18:29:37 437.568
SRMSAT 06 Dec 18:24:25 18:26:33 12° 197° (SSW) 18:28:41 437.500
CUTE 1.7 + AOD 2 06 Dec 18:48:56 18:53:00 49° 75° (ENE) 18:57:04 437.475
SO-50 06 Dec 18:49:43 18:53:54 31° 112° (ESE) 18:58:04 436.795
CINEMA 3 06 Dec 18:51:23 18:56:16 85° 259° (W) 19:01:18 145.822/145.860
Cosmos 2504 06 Dec 18:53:32 19:00:50 36° 86° (E) 19:08:31 435.465 / 435.565
CUBEBUG 2 06 Dec 19:05:49 19:10:01 32° 72° (ENE) 19:14:13 437.445
CANX-2 06 Dec 19:06:55 19:11:08 80° 260° (W) 19:15:21 2200.000
AAUSAT CUBESAT 2 06 Dec 19:09:59 19:13:27 27° 72° (ENE) 19:16:56 437.432
HO-68 06 Dec 19:10:01 19:17:11 86° 256° (WSW) 19:24:24 435.675
CUSAT 1 06 Dec 19:10:03 19:11:28 11° 79° (E) 19:13:00 437.405
DOVE 4 06 Dec 19:19:54 19:20:25 10° 270° (W) 19:20:56 437.250
Oscar 11 06 Dec 19:29:01 19:31:51 17° 70° (ENE) 19:34:43 145.826/435.025
SEEDS 06 Dec 19:31:01 19:35:10 73° 259° (W) 19:39:19 437.485
PCSat 06 Dec 19:32:45 19:36:09 17° 52° (NE) 19:39:31 145.827
COMPASS 1 06 Dec 19:40:09 19:44:16 88° 258° (WSW) 19:48:25 437.405
Cosmos 2491 06 Dec 19:46:16 19:52:45 24° 277° (W) 19:59:15 435.465 / 435.565
UWE-3 06 Dec 19:46:28 19:51:03 59° 76° (ENE) 19:55:36 435.000/436.395/437.385
AIST 1 06 Dec 19:53:10 19:57:22 53° 278° (W) 20:01:37
STRAND 1 06 Dec 20:00:39 20:05:23 39° 288° (WNW) 20:10:05 437.568
DELFI C3 06 Dec 20:04:17 20:06:10 13° 69° (ENE) 20:08:04 145.870
